User: anonymous   Login
Location: Unspecified
(0.0000°N, 0.0000°E)
Time: 23:48:57
(UTC+00:00)
Language:

PERSEUS M2 - Orbit

View from above orbital plane
View from above orbital plane
View from above satellite
View from above satellite

Ground track
Ground track

The orbit data is extracted from the following two-line orbital elements,

1 40037U 14033AD  17349.29612724  .00000101  00000-0  17719-4 0  9993
2 40037  97.9054 257.0388 0015814  73.8577 286.4377 14.86303530189210
Epoch (UTC): 15 December 2017 07:06:25
Eccentricity: 0.0015814
inclination: 97.9054°
perigee height: 598 km
apogee height: 620 km
right ascension of ascending node: 257.0388°
argument of perigee: 73.8577°
revolutions per day: 14.86303530
mean anomaly at epoch: 286.4377°
orbit number at epoch: 18921

The dashed part of the orbit path shows where the satellite is in the earth's shadow,  

DLR